Showing default

BILSAT 1, 27943

Orbit data source: Space-Track

BILSAT 1, 27943 is a payload satellite owned by TUBITAK-BILTEN (TR) in SSO that was launched on Sat, 27 Sep 2003 UTC via a KOSMOS 11K65M launch vehicle from the Plesetsk Missile And Space Complex (PKMTR). Payloads include a variety of satellites, spacecraft, and rockets equipped with specific instruments for various scientific and technological missions. These include communications satellites like Starlink; space stations such as the ISS; scientific satellites like the Hubble; Earth observation satellites from companies like Planet Labs, Umbra, and HawkEye 360; GPS; miniature CubeSats for education and research; and military/defense satellites.

Loading next visibility...
BILSAT 1 details
Identifier
27943, 2003-042E
Orbit
SSO
Last TLE update17 hours ago
Origin
Flag of TRTUBITAK-BILTEN (TR / TURK)
ManufacturerSSTL
MissionCivil Imaging
Bus & MotorSSTL-100, Unknown motor
Mass100 kg wet, 100 kg dry
Launch date (UTC)
2003-09-27 (21 years ago)
Launch vehicle
KOSMOS 11K65M
Launch site
Plesetsk Missile And Space Complex (PKMTR)
Object type
Payload
Rocket body
Debris
Shape & HBRBox + 1 Arm, 6.6 m
Radar Cross Section0.540 m², Medium (>0.1 m² and < 1m²)

Expand to show TLE details & history

TLE from 17 hours ago
0 BILSAT 1
1 27943U 03042E   25037.94344593  .00001127  00000-0  21276-3 0  9994
2 27943  98.3376 193.0227 0012031 103.1948 257.0598 14.66396369141522
Epoch: 2025-02-06T22:38Z
Definitive object data (Epoch: 2025-02-06T22:38:33.728Z)
Latitude-0.00003°
Longitude76.06939°
Altitude677.495 km
Speed7.517 km/s
True Right ascension12h 52m 05s
True Declination0° 00' 00"
Sunlit
Object was in full shadow at TLE epoch
Visualization TLE readout
Latitude62.40169°
Longitude-87.0242°
Altitude675.107 km
Speed7.53 km/s
Apparent Right ascension04h 16m 16s
Apparent Declination16° 33' 49"
Sunlit
Object is in daylight
Visualization observer readout
Local Sidereal Time17:44:25
Azimuth24.512° NE
Elevation-29.902°
Doppler factor1
Orbital elements
Apogee altitude678.154 km
Perigee altitude661.196 km
Semi-major axis7,047.812 km
Eccentricity0.0012031
Inclination98.3376°
RAAN193.0227°
Arg. of periapsis103.1948°
True anomaly256.92548°
Mean anomaly257.0598°
Eccentric anomaly256.99264°
Mean motion3.66827 °/min
BSTAR0.00021276
Orbital period98.14 mins
Loading maneuver chart data...
Loading historical data...
Loading historical data...
Loading historical data...
Loading historical data...
Loading historical data...
Loading historical data...
Loading historical data...

BILSAT 1 Visibility forecast

Observer location: undefined°, undefined

Span
Click to sort rows by Start time (UTC) header in descending order
Start Az.
Max El. time (UTC)
Max El. Az.
Max El.
End time (UTC)
End Az.
6 mins2025-02-07 22:09:51.828Z50.965° ENE2025-02-07 22:12:51.828Z98.208° ESE19.85°2025-02-07 22:15:51.828Z141.956° SSE
7 mins2025-02-07 23:46:51.828Z347.291° N2025-02-07 23:49:51.828Z289.745° WNW29.829°2025-02-07 23:53:51.828Z225.534° WSW
5 mins2025-02-08 09:11:51.828Z101.567° ESE2025-02-08 09:13:51.828Z68.997° E19.718°2025-02-08 09:16:51.828Z22.81° NE
7 mins2025-02-08 10:47:51.828Z202.114° SSW2025-02-08 10:50:51.828Z261.14° W30.95°2025-02-08 10:54:51.828Z328.317° NNW
|